This is the latest recevied weather packets stored in our database for station/object IW2OBX-10. If no packets are shown the sender has not sent any weather packets the latest 10 day(s).
| Time | Temp. | Humidity | Pressure | Rain* | Wind** | Luminosity | Snow |
|---|---|---|---|---|---|---|---|
| 1778380169 | 18.33° C | 63% | 1014.4 hPa | - | - | - | - |
| 1778379265 | 17.78° C | 66% | 1014.8 hPa | - | - | - | - |
| 1778374761 | 18.89° C | 60% | 1015.1 hPa | - | - | - | - |
| 1778373860 | 18.89° C | 57% | 1015.2 hPa | - | - | - | - |
| 1778363952 | 18.89° C | 53% | 1015.5 hPa | - | - | - | - |
| 1778362150 | 18.89° C | 50% | 1015.2 hPa | - | - | - | - |
| 1778361249 | 19.44° C | 50% | 1015.2 hPa | - | - | - | - |
| 1778360344 | 19.44° C | 50% | 1015.2 hPa | - | - | - | - |
| 1778359443 | 19.44° C | 49% | 1015.2 hPa | - | - | - | - |
| 1778358542 | 20° C | 48% | 1015 hPa | - | - | - | - |
| 1778357640 | 20° C | 48% | 1014.9 hPa | - | - | - | - |
| 1778356738 | 20° C | 48% | 1014.7 hPa | - | - | - | - |
| 1778355837 | 20.56° C | 46% | 1014.6 hPa | - | - | - | - |
| 1778354935 | 21.11° C | 46% | 1014.6 hPa | - | - | - | - |
| 1778354034 | 21.11° C | 45% | 1014.5 hPa | - | - | - | - |
| 1778353133 | 21.11° C | 46% | 1014.5 hPa | - | - | - | - |
| 1778352232 | 21.67° C | 45% | 1014.3 hPa | - | - | - | - |
| 1778351330 | 22.22° C | 46% | 1014.2 hPa | - | - | - | - |
| 1778350428 | 22.78° C | 43% | 1014 hPa | - | - | - | - |
| 1778349527 | 23.33° C | 43% | 1014 hPa | - | - | - | - |
| 1778348626 | 23.89° C | 41% | 1014.1 hPa | - | - | - | - |
| 1778347724 | 23.89° C | 40% | 1014 hPa | - | - | - | - |
| 1778346823 | 24.44° C | 38% | 1013.8 hPa | - | - | - | - |
| 1778345921 | 25° C | 37% | 1014 hPa | - | - | - | - |
| 1778345020 | 25.56° C | 36% | 1013.9 hPa | - | - | - | - |
* Rain since midnight (hover to see other rain measurements)
** Current wind speed in m/s (hover to see current wind gust speed)